This is the latest recevied weather packets stored in our database for station/object WA6OOO. If no packets are shown the sender has not sent any weather packets the latest 10 day(s).
| Time | Temp. | Humidity | Pressure | Rain* | Wind** | Luminosity | Snow |
|---|---|---|---|---|---|---|---|
| 1788386593 | 23.89° C | 61% | 1018.6 hPa | 0 mm | - | 572 W/m² | - |
| 1788386289 | 24.44° C | 57% | 1018.7 hPa | 0 mm | - | 581 W/m² | - |
| 1788386001 | 23.89° C | 61% | 1018.6 hPa | 0 mm | - | 592 W/m² | - |
| 1788385685 | 23.89° C | 62% | 1018.8 hPa | 0 mm | - | 602 W/m² | - |
| 1788385383 | 24.44° C | 61% | 1018.9 hPa | 0 mm | - | 612 W/m² | - |
| 1788385079 | 24.44° C | 62% | 1018.9 hPa | 0 mm | - | 621 W/m² | - |
| 1788384774 | 23.89° C | 64% | 1018.8 hPa | 0 mm | - | 630 W/m² | - |
| 1788384473 | 23.89° C | 64% | 1019 hPa | 0 mm | - | 640 W/m² | - |
| 1788384170 | 23.89° C | 63% | 1019 hPa | 0 mm | - | 648 W/m² | - |
| 1788383866 | 23.89° C | 63% | 1019.2 hPa | 0 mm | - | 658 W/m² | - |
| 1788383562 | 23.89° C | 63% | 1019.2 hPa | 0 mm | - | 665 W/m² | - |
| 1788383261 | 24.44° C | 61% | 1019.2 hPa | 0 mm | - | 673 W/m² | - |
| 1788382957 | 23.89° C | 63% | 1019 hPa | 0 mm | - | 681 W/m² | - |
| 1788382654 | 23.89° C | 61% | 1019.3 hPa | 0 mm | - | 685 W/m² | - |
| 1788382350 | 23.89° C | 60% | 1019.1 hPa | 0 mm | - | 693 W/m² | - |
| 1788382045 | 23.89° C | 62% | 1019.4 hPa | 0 mm | - | 695 W/m² | - |
| 1788381740 | 24.44° C | 59% | 1019.2 hPa | 0 mm | - | 703 W/m² | - |
| 1788381436 | 23.89° C | 57% | 1019.3 hPa | 0 mm | - | 704 W/m² | - |
| 1788381135 | 23.89° C | 62% | 1019.3 hPa | 0 mm | - | 707 W/m² | - |
| 1788380830 | 23.89° C | 62% | 1019.3 hPa | 0 mm | - | 712 W/m² | - |
| 1788380527 | 24.44° C | 62% | 1019.3 hPa | 0 mm | - | 712 W/m² | - |
| 1788380223 | 24.44° C | 61% | 1019.2 hPa | 0 mm | - | 711 W/m² | - |
| 1788379922 | 25° C | 59% | 1019.5 hPa | 0 mm | - | 711 W/m² | - |
| 1788379617 | 24.44° C | 58% | 1019.5 hPa | 0 mm | - | 710 W/m² | - |
| 1788379313 | 24.44° C | 63% | 1019.6 hPa | 0 mm | - | 709 W/m² | - |
* Rain latest hour (hover to see other rain measurements)
** Current wind speed in m/s (hover to see current wind gust speed)